FW5420 Weather Reports


time (UTC)temp
C
wind
direction
speed
KPH
gust
KPH
rain 1hr
cm
rain 24hr
cm
rain mn
cm
humidity
%
barometer
mb
20260906053015 24 55 3.2 9.7 0.00 0.00 0.00 87 1015.1
20260906051503 25 78 1.6 8.0 0.00 0.00 0.00 86 1014.9
20260906050100 25 90 0.0 8.0 0.00 0.00 0.00 86 1014.7
20260906044558 25 84 0.0 9.7 0.00 0.00 0.00 85 1014.5
20260906043058 25 119 1.6 9.7 0.00 0.00 0.00 84 1014.5
20260906041556 26 46 1.6 22.5 0.00 0.00 0.00 84 1014.3
20260906040055 26 88 4.8 16.1 0.00 0.00 0.00 84 1014.2
20260906034553 26 117 3.2 20.9 0.00 0.00 0.00 84 1014.0
20260906033059 27 5 6.4 16.1 0.00 0.00 0.00 84 1013.9
20260906031558 27 71 6.4 19.3 0.00 0.00 0.00 85 1013.7
20260906030054 27 57 4.8 12.9 0.00 0.00 0.00 86 1013.7
20260906024549 27 65 4.8 14.5 0.00 0.00 0.00 85 1013.4
20260906023049 28 73 3.2 14.5 0.00 0.00 0.00 84 1013.2
20260906021557 28 59 3.2 11.3 0.00 0.00 0.00 84 1013.2
20260906020048 28 55 1.6 6.4 0.00 0.00 0.00 84 1013.0
20260906014549 28 344 0.0 4.8 0.00 0.00 0.00 84 1012.7
20260906013048 29 55 0.0 3.2 0.00 0.00 0.00 83 1012.5
20260906011602 29 57 0.0 0.0 0.00 0.00 0.00 81 1012.4
20260906010047 30 57 0.0 3.2 0.00 0.00 0.00 80 1012.3
20260906004546 30 355 0.0 8.0 0.00 0.00 0.00 79 1012.2
20260906003046 31 329 1.6 6.4 0.00 0.00 0.00 77 1012.2
20260906001546 31 355 3.2 6.4 0.00 0.00 0.00 75 1012.2
20260906000045 31 57 4.8 11.3 0.00 0.00 0.00 74 1012.2
20260905234545 32 45 3.2 12.9 0.00 0.00 0.00 70 1012.1
20260905233103 33 23 1.6 9.7 0.00 0.00 0.00 69 1012.1
20260905231551 33 327 3.2 14.5 0.00 0.00 0.00 67 1012.1
20260905230046 33 15 4.8 14.5 0.00 0.00 0.00 64 1011.9
20260905224604 34 59 3.2 14.5 0.00 0.00 0.00 64 1011.9
20260905223041 33 355 4.8 12.9 0.00 0.00 0.00 65 1011.9
20260905221542 34 40 4.8 14.5 0.00 0.00 0.00 65 1012.0
20260905220047 33 53 4.8 14.5 0.00 0.00 0.00 66 1011.9
20260905214541 34 66 8.0 14.5 0.00 0.00 0.00 66 1012.0
20260905213036 34 55 8.0 16.1 0.00 0.00 0.00 66 1011.9
20260905211533 33 340 4.8 14.5 0.00 0.00 0.00 67 1012.0
20260905210031 34 319 8.0 22.5 0.00 0.00 0.00 66 1012.1
20260905204523 35 355 8.0 17.7 0.00 0.00 0.00 62 1012.2
20260905203021 35 337 6.4 19.3 0.00 0.00 0.00 58 1012.3
20260905201526 35 347 9.7 16.1 0.00 0.00 0.00 58 1012.4
20260905200020 35 328 8.0 14.5 0.00 0.00 0.00 58 1012.5
20260905194519 35 36 3.2 16.1 0.00 0.00 0.00 59 1012.6
20260905193018 35 297 4.8 17.7 0.00 0.00 0.00 59 1012.8
20260905191518 35 14 1.6 16.1 0.00 0.00 0.00 59 1012.8
20260905190016 35 360 6.4 16.1 0.00 0.00 0.00 56 1012.7
20260905184513 35 43 3.2 14.5 0.00 0.00 0.00 57 1012.8
20260905183012 35 9 4.8 17.7 0.00 0.00 0.00 58 1013.0
20260905181510 35 16 6.4 14.5 0.00 0.00 0.00 59 1013.1
20260905180012 34 344 6.4 14.5 0.00 0.00 0.00 60 1013.3
20260905174513 34 277 3.2 16.1 0.00 0.00 0.00 61 1013.3
20260905173018 33 350 6.4 14.5 0.00 0.00 0.00 61 1013.6
20260905171509 34 360 4.8 12.9 0.00 0.00 0.00 62 1013.5
20260905170006 35 277 1.6 9.7 0.00 0.00 0.00 59 1013.8
20260905164501 34 23 3.2 11.3 0.00 0.00 0.00 63 1013.6
20260905163103 34 247 1.6 11.3 0.00 0.00 0.00 63 1013.6
20260905161556 33 283 0.0 8.0 0.00 0.00 0.00 64 1013.6
20260905160051 32 277 4.8 12.9 0.00 0.00 0.00 66 1013.8
20260905154547 32 235 3.2 11.3 0.00 0.00 0.00 68 1013.6
20260905153044 32 242 3.2 11.3 0.00 0.00 0.00 69 1013.6
20260905151543 31 355 0.0 4.8 0.00 0.00 0.00 68 1013.5
20260905150039 32 15 0.0 6.4 0.00 0.00 0.00 69 1013.4
20260905144541 31 269 3.2 6.4 0.00 0.00 0.00 72 1013.3
20260905143033 30 249 0.0 3.2 0.00 0.00 0.00 73 1013.3
20260905141530 29 247 4.8 8.0 0.00 0.00 0.00 74 1013.1
20260905140025 28 200 0.0 1.6 0.00 0.00 0.00 76 1013.2
20260905134523 28 200 0.0 3.2 0.00 0.00 0.00 77 1013.4
20260905133020 27 192 0.0 0.0 0.00 0.00 0.00 78 1013.3
20260905131632 27 184 0.0 1.6 0.00 0.00 0.00 84 1013.4
20260905130015 25 184 0.0 1.6 0.00 0.00 0.00 90 1013.2
20260905124533 24 184 0.0 0.0 0.00 0.00 0.00 92 1013.3
20260905123012 23 184 0.0 0.0 0.00 0.00 0.00 92 1013.1
20260905121521 23 184 0.0 0.0 0.00 0.00 0.00 92 1013.1
20260905120011 23 184 0.0 0.0 0.00 0.00 0.00 92 1012.8
20260905114523 23 184 0.0 0.0 0.00 0.00 0.00 91 1012.7
20260905113008 23 184 0.0 0.0 0.00 0.00 0.00 91 1012.6
20260905111510 23 184 0.0 0.0 0.00 0.00 0.00 91 1012.4
20260905110007 23 184 0.0 0.0 0.00 0.00 0.00 90 1012.2
20260905104505 23 184 0.0 0.0 0.00 0.00 0.00 90 1012.4
20260905103014 23 184 0.0 0.0 0.00 0.00 0.00 90 1012.4
20260905101502 24 184 0.0 0.0 0.00 0.00 0.00 89 1012.4
20260905100001 24 184 0.0 0.0 0.00 0.00 0.00 89 1012.4
20260905094600 24 184 0.0 6.4 0.00 0.00 0.00 89 1012.5
20260905093102 24 184 0.0 0.0 0.00 0.00 0.00 89 1012.4
20260905091614 24 184 0.0 0.0 0.00 0.00 0.00 89 1012.6
20260905090056 25 184 0.0 0.0 0.00 0.00 0.00 89 1012.7
20260905084654 25 184 0.0 0.0 0.00 0.00 0.00 88 1012.6
20260905083054 25 184 0.0 0.0 0.00 0.00 0.00 88 1012.7
20260905081557 25 184 0.0 0.0 0.00 0.00 0.00 88 1012.9
20260905080053 25 184 0.0 0.0 0.00 0.00 0.00 88 1012.9
20260905074556 25 184 0.0 0.0 0.00 0.00 0.00 88 1012.9
20260905073051 25 184 0.0 0.0 0.00 0.00 0.00 88 1013.0
20260905071557 25 184 0.0 0.0 0.00 0.00 0.00 89 1013.0
20260905070056 25 184 0.0 1.6 0.00 0.00 0.00 90 1013.1
20260905064548 25 184 0.0 8.0 0.00 0.00 0.00 88 1013.1
20260905063050 25 184 0.0 0.0 0.00 0.00 0.00 88 1012.9
20260905061547 25 184 0.0 0.0 0.00 0.00 0.00 87 1012.9
20260905060041 26 184 0.0 0.0 0.00 0.00 0.00 86 1012.9
20260905054539 26 184 0.0 0.0 0.00 0.00 0.00 86 1012.7